Weather History for KLNC - November, 2011

Change the Weather History Date:

Monday, November 21, 2011

  Actual Average (KRBD) Record (KRBD)
Temperature  
Mean Temperature 52 °F -  
Max Temperature 55 °F 62 °F 81 °F (2010)
Min Temperature 48 °F 44 °F 30 °F (2000)
Degree Days  
Heating Degree Days 14    
Growing Degree Days 2 (Base 50)    
Moisture  
Dew Point 49 °F    
Average Humidity 92    
Maximum Humidity 100    
Minimum Humidity 82    
Precipitation  
Precipitation 0.01 in - - ()
Sea Level Pressure  
Sea Level Pressure 30.08 in    
Wind  
Wind Speed 7 mph (North)    
Max Wind Speed 10 mph    
Max Gust Speed -    
Visibility 5 miles    
Events Rain , Thunderstorm    
Averages and records for this station are not official NWS values.
T = Trace of Precipitation, MM = Missing Value Source: NWS Daily Summary

Daily Weather History Graph

Daily Weather History Graph

Search for Another Location

Airport or City:

Trip Planner

Search our weather history database for the weather conditions in past years. The results will help you decide how hot, cold, wet, or windy it might be!

Date:

Astronomy

Nov. 21, 2011 Rise Set
Actual Time 7:01 AM CST 5:23 PM CST
Civil Twilight 6:35 AM CST 5:49 PM CST
Nautical Twilight 6:05 AM CST 6:19 PM CST
Astronomical Twilight 5:36 AM CST 6:49 PM CST
Moon 2:53 AM CST (11/21) 2:37 PM CST (11/21)
Length of Visible Light 11h 14m
Length of Day
10h 21m
Waning Crescent, 17% of the Moon is Illuminated
Nov 21
Waning Crescent
Nov 25
New
Dec 2
First Quarter
Dec 10
Full
Dec 17
Last Quarter

Hourly Weather History & Observations

Time (CST) Temp. Dew Point Humidity Pressure Visibility Wind Dir Wind Speed Gust Speed Precip Events Conditions
12:15 AM 51.8 °F 46.4 °F 82% 30.14 in 7.0 mi NW 10.4 mph - N/A   Overcast
12:35 AM 50.0 °F 46.4 °F 87% 30.13 in 7.0 mi NW 10.4 mph - N/A   Overcast
12:55 AM 50.0 °F 46.4 °F 87% 30.13 in 10.0 mi NNW 8.1 mph - N/A   Overcast
1:15 AM 50.0 °F 46.4 °F 87% 30.13 in 10.0 mi NNW 9.2 mph - N/A   Overcast
1:35 AM 50.0 °F 46.4 °F 87% 30.13 in 10.0 mi NW 9.2 mph - N/A   Overcast
1:55 AM 50.0 °F 46.4 °F 87% 30.13 in 10.0 mi NW 9.2 mph - N/A   Overcast
2:15 AM 50.0 °F 46.4 °F 87% 30.13 in 7.0 mi NNW 9.2 mph - N/A Rain Rain
2:35 AM 50.0 °F 46.4 °F 87% 30.13 in 7.0 mi NNW 9.2 mph - N/A Rain Light Rain
2:55 AM 50.0 °F 46.4 °F 87% 30.13 in 10.0 mi NW 6.9 mph - N/A   Drizzle
3:15 AM 50.0 °F 46.4 °F 87% 30.13 in 7.0 mi NNW 6.9 mph - 0.01 in Rain Light Rain
3:35 AM 50.0 °F 46.4 °F 87% 30.13 in 10.0 mi NW 5.8 mph - 0.01 in Rain Light Rain
3:55 AM 50.0 °F 46.4 °F 87% 30.13 in 10.0 mi NW 5.8 mph - 0.01 in   Overcast
4:15 AM 50.0 °F 46.4 °F 87% 30.13 in 7.0 mi NNW 5.8 mph - N/A   Overcast
4:35 AM 50.0 °F 46.4 °F 87% 30.13 in 7.0 mi NNW 6.9 mph - N/A   Overcast
4:55 AM 50.0 °F 46.4 °F 87% 30.13 in 7.0 mi NNW 4.6 mph - N/A   Overcast
5:15 AM 50.0 °F 46.4 °F 87% 30.14 in 7.0 mi NNW 8.1 mph - N/A   Overcast
5:35 AM 50.0 °F 46.4 °F 87% 30.14 in 5.0 mi NNW 4.6 mph - N/A   Overcast
5:55 AM 50.0 °F 46.4 °F 87% 30.15 in 7.0 mi NNW 8.1 mph - N/A   Overcast
6:15 AM 48.2 °F 46.4 °F 93% 30.15 in 5.0 mi North 4.6 mph - N/A   Overcast
6:35 AM 48.2 °F 46.4 °F 93% 30.15 in 5.0 mi North 9.2 mph - N/A   Overcast
6:55 AM 48.2 °F 46.4 °F 93% 30.17 in 5.0 mi North 5.8 mph - N/A   Overcast
7:15 AM 48.2 °F 46.4 °F 93% 30.17 in 5.0 mi North 4.6 mph - N/A   Overcast
7:35 AM 48.2 °F 46.4 °F 93% 30.17 in 4.0 mi Calm Calm - N/A   Overcast
7:55 AM 48.2 °F 46.4 °F 93% 30.18 in 4.0 mi North 8.1 mph - N/A   Overcast
8:15 AM 48.2 °F 46.4 °F 93% 30.17 in 3.0 mi North 10.4 mph - N/A   Overcast
8:35 AM 48.2 °F 46.4 °F 93% 30.18 in 3.0 mi North 8.1 mph - N/A   Overcast
8:55 AM 48.2 °F 46.4 °F 93% 30.18 in 3.0 mi North 9.2 mph - N/A   Overcast
9:15 AM 50.0 °F 46.4 °F 87% 30.18 in 3.0 mi North 5.8 mph - N/A   Overcast
9:35 AM 50.0 °F 46.4 °F 87% 30.17 in 4.0 mi North 6.9 mph - N/A   Overcast
9:55 AM 50.0 °F 46.4 °F 87% 30.17 in 4.0 mi NNE 5.8 mph - N/A   Overcast
10:15 AM 50.0 °F 46.4 °F 87% 30.15 in 4.0 mi NNE 4.6 mph - N/A   Overcast
10:35 AM 50.0 °F 48.2 °F 94% 30.15 in 4.0 mi ENE 5.8 mph - N/A   Overcast
10:55 AM 50.0 °F 48.2 °F 94% 30.14 in 4.0 mi NE 5.8 mph - N/A   Overcast
11:15 AM 50.0 °F 48.2 °F 94% 30.13 in 4.0 mi NNE 3.5 mph - N/A   Overcast
11:35 AM 51.8 °F 50.0 °F 94% 30.13 in 4.0 mi NE 5.8 mph - N/A   Overcast
11:55 AM 51.8 °F 50.0 °F 94% 30.11 in 3.0 mi NE 4.6 mph - N/A   Overcast
12:15 PM 51.8 °F 50.0 °F 94% 30.09 in 3.0 mi NNE 4.6 mph - N/A Rain Light Rain
12:35 PM 51.8 °F 50.0 °F 94% 30.07 in 2.5 mi NE 3.5 mph - N/A   Light Drizzle
12:55 PM 51.8 °F 51.8 °F 100% 30.05 in 2.5 mi NE 5.8 mph - N/A   Overcast
1:15 PM 51.8 °F 51.8 °F 100% 30.04 in 3.0 mi East 4.6 mph - N/A   Overcast
1:35 PM 51.8 °F 51.8 °F 100% 30.02 in 3.0 mi East 5.8 mph - N/A   Overcast
1:55 PM 53.6 °F 51.8 °F 94% 30.00 in 3.0 mi East 6.9 mph - N/A   Overcast
2:15 PM 53.6 °F 51.8 °F 94% 29.98 in 3.0 mi East 4.6 mph - N/A   Overcast
2:35 PM 53.6 °F 51.8 °F 94% 29.98 in 3.0 mi Calm Calm - N/A   Overcast
2:55 PM 53.6 °F 51.8 °F 94% 29.96 in 3.0 mi ENE 3.5 mph - N/A   Overcast
3:15 PM 53.6 °F 53.6 °F 100% 29.95 in 2.5 mi ENE 4.6 mph - N/A   Overcast
3:35 PM 53.6 °F 53.6 °F 100% 29.93 in 2.5 mi ENE 5.8 mph - N/A   Overcast
3:55 PM 55.4 °F 53.6 °F 94% 29.92 in 2.5 mi NE 3.5 mph - N/A Thunderstorm Overcast
4:15 PM 55.4 °F 53.6 °F 94% 29.89 in 2.5 mi East 3.5 mph - N/A Thunderstorm Overcast
4:35 PM 55.4 °F 53.6 °F 94% 29.89 in 2.5 mi Calm Calm - N/A   Overcast
4:55 PM 55.4 °F 53.6 °F 94% 29.87 in 2.0 mi Calm Calm - N/A   Overcast
5:15 PM 55.4 °F 55.4 °F 100% 29.87 in 2.0 mi Calm Calm - N/A   Overcast
5:35 PM 55.4 °F 55.4 °F 100% 29.87 in 3.0 mi North 3.5 mph - N/A   Overcast
5:55 PM 55.4 °F 53.6 °F 94% 29.88 in 3.0 mi NW 3.5 mph - N/A   Overcast
6:15 PM 55.4 °F 53.6 °F 94% 29.89 in 3.0 mi WNW 6.9 mph - N/A   Overcast
6:35 PM 55.4 °F 53.6 °F 94% 29.91 in 3.0 mi WNW 9.2 mph - 0.01 in Rain Light Rain
6:55 PM 55.4 °F 53.6 °F 94% 29.92 in 4.0 mi WNW 10.4 mph - 0.01 in   Overcast
7:15 PM 55.4 °F 53.6 °F 94% 29.92 in 5.0 mi NW 10.4 mph - N/A   Overcast
7:35 PM 53.6 °F 53.6 °F 100% 29.93 in 5.0 mi NW 10.4 mph - N/A Rain Light Rain
7:55 PM 51.8 °F 51.8 °F 100% 29.93 in 10.0 mi NW 6.9 mph - N/A Thunderstorm Overcast
8:15 PM 51.8 °F 50.0 °F 94% 29.92 in 10.0 mi NNW 5.8 mph - 0.01 in Rain , Thunderstorm Light Thunderstorms and Rain
8:35 PM 51.8 °F 50.0 °F 94% 29.95 in 10.0 mi WNW 6.9 mph - 0.03 in Rain , Thunderstorm Light Thunderstorms and Rain
8:55 PM 51.8 °F 50.0 °F 94% 29.95 in 10.0 mi NW 5.8 mph - 0.09 in Thunderstorm Overcast
9:15 PM 51.8 °F 50.0 °F 94% 29.96 in 10.0 mi WNW 12.7 mph 17.3 mph N/A   Overcast
9:35 PM 51.8 °F 50.0 °F 94% 29.97 in 10.0 mi NW 8.1 mph - N/A   Overcast
9:55 PM 51.8 °F 50.0 °F 94% 29.98 in 10.0 mi WNW 10.4 mph - N/A   Overcast
10:15 PM 51.8 °F 50.0 °F 94% 29.97 in 10.0 mi NNW 8.1 mph - N/A   Overcast
10:35 PM 51.8 °F 50.0 °F 94% 29.97 in 10.0 mi NW 11.5 mph - N/A   Overcast
10:55 PM 51.8 °F 50.0 °F 94% 30.00 in 10.0 mi NW 15.0 mph 20.7 mph N/A Thunderstorm Overcast
11:15 PM 50.0 °F 50.0 °F 100% 29.99 in 7.0 mi NNW 6.9 mph 13.8 mph N/A Thunderstorm Unknown
11:35 PM 50.0 °F 50.0 °F 100% 30.00 in 10.0 mi NNW 8.1 mph - N/A Thunderstorm Overcast
11:55 PM 50.0 °F 50.0 °F 100% 29.99 in 10.0 mi NNW 3.5 mph - N/A   Overcast